Weather History for Fort Eustis, VA

Change the Weather History Date:

Sunday, September 30, 2012

  Actual Average Record
Temperature  
Mean Temperature 65 °F -  
Max Temperature 73 °F 74 °F 87 °F (1998)
Min Temperature 58 °F 57 °F 50 °F (2003)
Growing Degree Days 15 (Base 50)    
Moisture  
Dew Point 57 °F    
Average Humidity 77    
Maximum Humidity 94    
Minimum Humidity 45    
Precipitation  
Precipitation 0.00 in - - ()
Sea Level Pressure  
Sea Level Pressure 29.89 in    
Wind  
Wind Speed 2 mph (NW)    
Max Wind Speed 7 mph    
Max Gust Speed -    
Visibility 10 miles    
Events      
Averages and records for this station are not official NWS values.
T = Trace of Precipitation, MM = Missing Value Source: NWS Daily Summary

Daily Weather History Graph

Daily Weather History Graph

Search for Another Location

Airport:

Trip Planner

Search our weather history database for the weather conditions in past years. The results will help you decide how hot, cold, wet, or windy it might be!

Date:

Astronomy

Sep. 30, 2012 Rise Set
Actual Time 7:01 AM EDT 6:50 PM EDT
Civil Twilight 6:35 AM EDT 7:16 PM EDT
Nautical Twilight 6:05 AM EDT 7:46 PM EDT
Astronomical Twilight 5:34 AM EDT 8:16 PM EDT
Moon 6:55 PM EDT (9/30) 7:28 AM EDT (9/30)
Length of Visible Light 12h 41m
Length of Day
11h 49m
Full, 100% of the Moon is Illuminated
Sep 30
Full
Oct 8
Last Quarter
Oct 15
New
Oct 21
First Quarter
Oct 29
Full

Hourly Weather History & Observations

Time (EDT) Temp. Dew Point Humidity Pressure Visibility Wind Dir Wind Speed Gust Speed Precip Events Conditions
12:38 AM 62.6 °F 60.8 °F 94% 29.92 in 10.0 mi Calm Calm - N/A   Overcast
12:55 AM 62.2 °F 59.9 °F 92% 29.91 in 10.0 mi Calm Calm - N/A   Overcast
1:06 AM 62.6 °F 60.8 °F 94% 29.91 in 10.0 mi Calm Calm - N/A   Overcast
1:07 AM 62.6 °F 60.8 °F 94% 29.91 in 10.0 mi Calm Calm - N/A   Overcast
1:09 AM 62.6 °F 60.8 °F 94% 29.91 in 10.0 mi NW 3.5 mph - N/A   Overcast
1:23 AM 62.6 °F 60.8 °F 94% 29.91 in 10.0 mi West 4.6 mph - N/A   Overcast
1:26 AM 62.6 °F 60.8 °F 94% 29.91 in 10.0 mi WNW 4.6 mph - N/A   Overcast
1:35 AM 62.6 °F 60.8 °F 94% 29.91 in 10.0 mi NW 3.5 mph - N/A   Overcast
1:55 AM 62.2 °F 59.9 °F 92% 29.90 in 10.0 mi NNW 4.6 mph - N/A   Overcast
2:02 AM 62.6 °F 59.0 °F 88% 29.90 in 10.0 mi NNW 6.9 mph - N/A   Mostly Cloudy
2:55 AM 62.1 °F 58.6 °F 89% 29.90 in 10.0 mi NNW 6.9 mph - N/A   Overcast
3:55 AM 62.6 °F 56.8 °F 81% 29.89 in 10.0 mi Calm Calm - N/A   Mostly Cloudy
4:55 AM 58.8 °F 57.2 °F 94% 29.89 in 10.0 mi Calm Calm - N/A   Mostly Cloudy
5:55 AM 59.9 °F 58.3 °F 94% 29.91 in 10.0 mi WNW 3.5 mph - N/A   Mostly Cloudy
6:55 AM 59.0 °F 57.4 °F 94% 29.91 in 10.0 mi Calm Calm - N/A   Scattered Clouds
7:55 AM 60.6 °F 55.2 °F 82% 29.90 in 10.0 mi North 4.6 mph - N/A   Clear
8:55 AM 63.0 °F 54.5 °F 74% 29.91 in 10.0 mi Calm Calm - N/A   Clear
9:55 AM 65.5 °F 50.7 °F 59% 29.91 in 10.0 mi Calm Calm - N/A   Clear
10:55 AM 66.7 °F 53.2 °F 62% 29.91 in 10.0 mi WNW 3.5 mph - N/A   Clear
11:55 AM 68.2 °F 52.0 °F 56% 29.91 in 10.0 mi Calm Calm - N/A   Clear
12:55 PM 69.6 °F 50.7 °F 51% 29.90 in 10.0 mi NNW 5.8 mph - N/A   Clear
1:55 PM 71.2 °F 51.6 °F 50% 29.87 in 10.0 mi Variable 4.6 mph - N/A   Clear
2:55 PM 71.6 °F 50.7 °F 48% 29.86 in 10.0 mi Variable 3.5 mph - N/A   Clear
3:55 PM 72.7 °F 50.4 °F 45% 29.85 in 10.0 mi Calm Calm - N/A   Clear
4:55 PM 70.0 °F 50.9 °F 51% 29.85 in 10.0 mi Calm Calm - N/A   Clear
5:55 PM 68.5 °F 56.8 °F 66% 29.85 in 10.0 mi Calm Calm - N/A   Clear
6:34 PM 66.2 °F 59.0 °F 78% 29.86 in 10.0 mi Calm Calm - N/A   Light Drizzle
6:43 PM 66.2 °F 59.0 °F 78% 29.86 in 10.0 mi Calm Calm - N/A   Clear
6:55 PM 64.8 °F 58.6 °F 81% 29.86 in 10.0 mi Calm Calm - 0.00 in   Clear
7:55 PM 62.8 °F 55.8 °F 78% 29.87 in 10.0 mi Variable 3.5 mph - N/A   Clear
8:55 PM 66.4 °F 55.9 °F 69% 29.89 in 10.0 mi SW 4.6 mph - N/A   Clear
9:55 PM 65.8 °F 56.5 °F 72% 29.90 in 10.0 mi SW 3.5 mph - N/A   Clear
10:55 PM 64.9 °F 56.7 °F 74% 29.90 in 10.0 mi Calm Calm - N/A   Clear
11:55 PM 64.0 °F 57.2 °F 78% 29.90 in 10.0 mi Calm Calm - N/A   Clear